TimeEST,TemperatureF,Dew PointF,Humidity,Sea Level PressureIn,VisibilityMPH,Wind Direction,Wind SpeedMPH,Gust SpeedMPH,PrecipitationIn,Events,Conditions,WindDirDegrees,DateUTC
12:35 AM,30.2,24.8,80,30.14,10.0,SSE,6.9,-,N/A,,Overcast,150,2012-12-28 05:35:00
12:55 AM,30.2,24.8,80,30.14,10.0,SE,4.6,-,N/A,,Overcast,140,2012-12-28 05:55:00
1:15 AM,30.2,24.8,80,30.13,10.0,SSE,3.5,-,N/A,,Overcast,160,2012-12-28 06:15:00
1:35 AM,30.2,26.6,86,30.14,10.0,South,4.6,-,N/A,,Overcast,170,2012-12-28 06:35:00
1:55 AM,30.2,24.8,80,30.14,10.0,SSE,5.8,-,N/A,,Overcast,160,2012-12-28 06:55:00
2:15 AM,30.2,24.8,80,30.14,10.0,South,5.8,-,N/A,,Overcast,170,2012-12-28 07:15:00
2:35 AM,30.2,24.8,80,30.14,10.0,South,4.6,-,N/A,,Overcast,170,2012-12-28 07:35:00
2:55 AM,30.2,26.6,86,30.15,10.0,Calm,Calm,-,N/A,,Overcast,0,2012-12-28 07:55:00
3:15 AM,30.2,26.6,86,30.15,10.0,SE,3.5,-,N/A,,Overcast,140,2012-12-28 08:15:00
3:35 AM,30.2,26.6,86,30.14,10.0,Calm,Calm,-,N/A,,Overcast,0,2012-12-28 08:35:00
3:55 AM,30.2,26.6,86,30.14,10.0,Calm,Calm,-,N/A,,Overcast,0,2012-12-28 08:55:00
4:15 AM,30.2,26.6,86,30.13,10.0,SE,4.6,-,N/A,,Overcast,130,2012-12-28 09:15:00
4:35 AM,30.2,26.6,86,30.12,10.0,SE,4.6,-,N/A,,Overcast,140,2012-12-28 09:35:00
4:55 AM,30.2,26.6,86,30.12,10.0,ESE,5.8,-,N/A,,Overcast,120,2012-12-28 09:55:00
5:15 AM,30.2,26.6,86,30.12,10.0,ESE,4.6,-,N/A,,Overcast,120,2012-12-28 10:15:00
5:35 AM,30.2,26.6,86,30.12,10.0,SE,6.9,-,N/A,,Overcast,130,2012-12-28 10:35:00
5:55 AM,30.2,26.6,86,30.10,10.0,SE,5.8,-,N/A,,Overcast,130,2012-12-28 10:55:00
6:35 AM,30.2,26.6,86,30.09,10.0,ESE,5.8,-,N/A,,Overcast,120,2012-12-28 11:35:00
6:55 AM,30.2,26.6,86,30.09,10.0,SE,5.8,-,N/A,,Overcast,140,2012-12-28 11:55:00
7:15 AM,30.2,26.6,86,30.11,10.0,SSE,5.8,-,N/A,,Overcast,150,2012-12-28 12:15:00
7:35 AM,30.2,26.6,86,30.09,10.0,SE,6.9,-,N/A,,Overcast,130,2012-12-28 12:35:00
7:55 AM,30.2,26.6,86,30.08,10.0,ESE,6.9,-,N/A,,Overcast,110,2012-12-28 12:55:00
8:15 AM,30.2,26.6,86,30.07,10.0,ESE,6.9,-,N/A,,Mostly Cloudy,120,2012-12-28 13:15:00
8:35 AM,30.2,26.6,86,30.08,10.0,SE,5.8,-,N/A,,Mostly Cloudy,130,2012-12-28 13:35:00
8:55 AM,30.2,26.6,86,30.10,10.0,SE,4.6,-,N/A,,Overcast,140,2012-12-28 13:55:00
9:15 AM,30.2,26.6,86,30.10,10.0,SE,3.5,-,N/A,,Overcast,130,2012-12-28 14:15:00
9:35 AM,32.0,26.6,80,30.12,10.0,SSE,5.8,-,N/A,,Overcast,160,2012-12-28 14:35:00
9:55 AM,32.0,26.6,80,30.14,10.0,South,4.6,-,N/A,,Overcast,170,2012-12-28 14:55:00
10:15 AM,32.0,26.6,80,30.14,10.0,SE,4.6,-,N/A,,Overcast,140,2012-12-28 15:15:00
10:35 AM,32.0,28.4,87,30.14,10.0,SE,5.8,-,N/A,,Mostly Cloudy,140,2012-12-28 15:35:00
10:55 AM,32.0,28.4,87,30.12,10.0,SE,4.6,-,N/A,,Mostly Cloudy,140,2012-12-28 15:55:00
11:15 AM,32.0,28.4,87,30.11,10.0,SSE,8.1,-,N/A,,Mostly Cloudy,150,2012-12-28 16:15:00
11:35 AM,32.0,28.4,87,30.11,10.0,SSE,6.9,-,N/A,,Mostly Cloudy,150,2012-12-28 16:35:00
11:55 AM,33.8,28.4,81,30.10,10.0,SE,3.5,-,N/A,,Mostly Cloudy,140,2012-12-28 16:55:00
12:15 PM,33.8,28.4,81,30.09,10.0,South,4.6,-,N/A,,Mostly Cloudy,170,2012-12-28 17:15:00
12:35 PM,33.8,28.4,81,30.05,10.0,SSE,4.6,-,N/A,,Scattered Clouds,150,2012-12-28 17:35:00
1:15 PM,33.8,28.4,81,30.02,10.0,SSE,5.8,-,N/A,,Clear,160,2012-12-28 18:15:00
1:35 PM,33.8,28.4,81,30.01,10.0,SSE,3.5,-,N/A,,Clear,160,2012-12-28 18:35:00
1:55 PM,35.6,30.2,81,29.99,10.0,South,4.6,-,N/A,,Clear,180,2012-12-28 18:55:00
2:15 PM,35.6,30.2,81,29.99,10.0,SSW,4.6,-,N/A,,Clear,200,2012-12-28 19:15:00
2:35 PM,35.6,30.2,81,30.00,10.0,Calm,Calm,-,N/A,,Clear,0,2012-12-28 19:35:00
2:55 PM,35.6,30.2,81,29.98,10.0,Calm,Calm,-,N/A,,Clear,0,2012-12-28 19:55:00
3:15 PM,37.4,30.2,75,29.99,10.0,Calm,Calm,-,N/A,,Scattered Clouds,0,2012-12-28 20:15:00
3:35 PM,37.4,30.2,75,29.98,10.0,Calm,Calm,-,N/A,,Mostly Cloudy,0,2012-12-28 20:35:00
3:55 PM,37.4,30.2,75,29.96,10.0,SE,3.5,-,N/A,,Overcast,140,2012-12-28 20:55:00
4:15 PM,37.4,30.2,75,29.96,10.0,South,3.5,-,N/A,,Mostly Cloudy,170,2012-12-28 21:15:00
4:35 PM,37.4,30.2,75,29.97,10.0,South,3.5,-,N/A,,Mostly Cloudy,180,2012-12-28 21:35:00
4:55 PM,37.4,30.2,75,29.97,10.0,Calm,Calm,-,N/A,,Overcast,0,2012-12-28 21:55:00
5:35 PM,35.6,32.0,87,29.97,10.0,Calm,Calm,-,N/A,,Overcast,0,2012-12-28 22:35:00
5:55 PM,35.6,30.2,81,29.96,10.0,Calm,Calm,-,N/A,,Overcast,0,2012-12-28 22:55:00
6:15 PM,35.6,30.2,81,29.96,10.0,ENE,4.6,-,N/A,,Overcast,60,2012-12-28 23:15:00
6:35 PM,35.6,32.0,87,29.95,10.0,East,3.5,-,N/A,,Overcast,90,2012-12-28 23:35:00
6:55 PM,35.6,32.0,87,29.93,10.0,ESE,3.5,-,N/A,,Overcast,110,2012-12-28 23:55:00
7:15 PM,35.6,32.0,87,29.92,10.0,ESE,5.8,-,N/A,,Overcast,110,2012-12-29 00:15:00
7:35 PM,35.6,32.0,87,29.92,10.0,ESE,4.6,-,N/A,,Overcast,120,2012-12-29 00:35:00
7:55 PM,35.6,32.0,87,29.91,10.0,ESE,5.8,-,N/A,,Overcast,120,2012-12-29 00:55:00
8:15 PM,35.6,32.0,87,29.91,10.0,ESE,4.6,-,N/A,,Overcast,120,2012-12-29 01:15:00
8:35 PM,35.6,32.0,87,29.89,10.0,East,4.6,-,N/A,,Overcast,90,2012-12-29 01:35:00
8:55 PM,35.6,32.0,87,29.88,10.0,ESE,5.8,-,N/A,Rain,Light Rain,120,2012-12-29 01:55:00
9:15 PM,33.8,32.0,93,29.89,5.0,SSE,5.8,-,N/A,,Overcast,160,2012-12-29 02:15:00
9:35 PM,33.8,32.0,93,29.88,4.0,ESE,4.6,-,N/A,Snow,Light Snow,120,2012-12-29 02:35:00
9:55 PM,33.8,32.0,93,29.87,2.5,ESE,4.6,-,N/A,Snow,Light Snow,120,2012-12-29 02:55:00
10:15 PM,32.0,32.0,100,29.86,2.5,SE,4.6,-,N/A,Snow,Light Snow,130,2012-12-29 03:15:00
10:35 PM,32.0,32.0,100,29.84,1.8,ESE,4.6,-,N/A,Snow,Light Snow,120,2012-12-29 03:35:00
10:55 PM,32.0,32.0,100,29.84,1.8,SE,4.6,-,N/A,Snow,Light Snow,130,2012-12-29 03:55:00
11:15 PM,32.0,32.0,100,29.84,1.8,ESE,3.5,-,N/A,Snow,Light Snow,120,2012-12-29 04:15:00
11:35 PM,32.0,32.0,100,29.82,2.0,East,4.6,-,N/A,Snow,Light Snow,100,2012-12-29 04:35:00
11:55 PM,32.0,32.0,100,29.80,2.0,East,5.8,-,N/A,Snow,Light Snow,90,2012-12-29 04:55:00